Weather History for Marathon, FL

Change the Weather History Date:

Saturday, November 5, 2011

  Actual Average Record
Temperature  
Mean Temperature 69 °F 77 °F  
Max Temperature 75 °F 82 °F 87 °F (1996)
Min Temperature 62 °F 72 °F 62 °F (2011)
Degree Days  
Heating Degree Days 0 0  
Month to date heating degree days 0 0  
Since 1 July heating degree days 0 0  
Cooling Degree Days 4 12  
Month to date cooling degree days 53 62  
Year to date cooling degree days 4832 4501  
Growing Degree Days 18 (Base 50)    
Moisture  
Dew Point 59 °F    
Average Humidity 69    
Maximum Humidity 84    
Minimum Humidity 53    
Precipitation  
Precipitation 0.00 in 0.09 in 0.20 in (2001)
Month to date precipitation 0.00 0.70  
Year to date precipitation 35.51 42.03  
Snow  
Snow 0.00 in - - ()
Month to date snowfall 0.0  
Since 1 July snowfall 0.0  
Since 1 September snowfall 0.0  
Snow Depth 0.00 in    
Sea Level Pressure  
Sea Level Pressure 29.96 in    
Wind  
Wind Speed 9 mph (North)    
Max Wind Speed 17 mph    
Max Gust Speed 25 mph    
Visibility 10 miles    
Events      
T = Trace of Precipitation, MM = Missing Value Source: NWS Daily Summary

Daily Weather History Graph

Daily Weather History Graph

Search for Another Location

Airport:

Trip Planner

Search our weather history database for the weather conditions in past years. The results will help you decide how hot, cold, wet, or windy it might be!

Date:

Astronomy

Nov. 05, 2011 Rise Set
Actual Time 7:33 AM EDT 6:41 PM EDT
Civil Twilight 7:09 AM EDT 7:05 PM EDT
Nautical Twilight 6:42 AM EDT 7:32 PM EDT
Astronomical Twilight 6:15 AM EDT 7:59 PM EDT
Moon 3:35 PM EDT (11/5) 3:09 AM EDT (11/5)
Length of Visible Light 11h 55m
Length of Day
11h 08m
Waxing Gibbous, 78% of the Moon is Illuminated
Nov 5
Waxing Gibbous
Nov 10
Full
Nov 18
Last Quarter
Nov 25
New
Dec 2
First Quarter

Hourly Weather History & Observations

Time (EDT) Temp. Dew Point Humidity Pressure Visibility Wind Dir Wind Speed Gust Speed Precip Events Conditions
12:48 AM 69.8 °F 60.8 °F 73% 29.94 in 10.0 mi North 13.8 mph 24.2 mph N/A   Mostly Cloudy
12:53 AM 70.0 °F 60.1 °F 71% 29.94 in 10.0 mi NNW 15.0 mph 24.2 mph N/A   Mostly Cloudy
1:53 AM 66.0 °F 59.0 °F 78% 29.95 in 10.0 mi North 13.8 mph 24.2 mph N/A   Overcast
2:38 AM 64.4 °F 57.2 °F 77% 29.95 in 10.0 mi North 12.7 mph - N/A   Scattered Clouds
2:53 AM 64.0 °F 57.0 °F 78% 29.94 in 10.0 mi North 11.5 mph 18.4 mph N/A   Partly Cloudy
3:29 AM 64.4 °F 57.2 °F 77% 29.93 in 10.0 mi North 9.2 mph 18.4 mph N/A   Mostly Cloudy
3:53 AM 63.0 °F 55.9 °F 78% 29.94 in 10.0 mi NNE 10.4 mph 16.1 mph N/A   Mostly Cloudy
4:26 AM 62.6 °F 53.6 °F 72% 29.93 in 10.0 mi NNE 8.1 mph - N/A   Scattered Clouds
4:53 AM 63.0 °F 55.0 °F 75% 29.94 in 10.0 mi NNE 6.9 mph - N/A   Scattered Clouds
5:03 AM 62.6 °F 55.4 °F 77% 29.93 in 10.0 mi North 10.4 mph - N/A   Mostly Cloudy
5:34 AM 62.6 °F 55.4 °F 77% 29.94 in 10.0 mi North 9.2 mph - N/A   Scattered Clouds
5:53 AM 62.1 °F 55.0 °F 78% 29.94 in 10.0 mi NNE 9.2 mph - N/A   Clear
6:53 AM 63.0 °F 55.9 °F 78% 29.95 in 10.0 mi North 10.4 mph - N/A   Clear
9:53 AM 68.0 °F 57.9 °F 70% 29.99 in 10.0 mi North 10.4 mph 17.3 mph N/A   Clear
10:53 AM 70.0 °F 57.9 °F 65% 29.99 in 10.0 mi North 11.5 mph - N/A   Clear
12:53 PM 73.0 °F 57.9 °F 59% 29.98 in 10.0 mi NNE 10.4 mph - N/A   Clear
1:53 PM 73.9 °F 55.9 °F 53% 29.96 in 10.0 mi Variable 6.9 mph - N/A   Clear
3:53 PM 73.9 °F 57.9 °F 57% 29.94 in 10.0 mi NE 9.2 mph - N/A   Clear
4:53 PM 75.0 °F 59.0 °F 57% 29.94 in 10.0 mi NNE 6.9 mph - N/A   Clear
5:53 PM 73.9 °F 59.0 °F 59% 29.94 in 10.0 mi NNE 3.5 mph - N/A   Clear
6:53 PM 72.0 °F 60.1 °F 66% 29.95 in 10.0 mi NNE 3.5 mph - N/A   Partly Cloudy
7:53 PM 72.0 °F 62.1 °F 71% 29.96 in 10.0 mi Calm Calm - N/A   Partly Cloudy
8:53 PM 73.9 °F 64.0 °F 71% 29.98 in 10.0 mi North 8.1 mph - N/A   Mostly Cloudy
9:53 PM 73.9 °F 64.9 °F 73% 29.99 in 10.0 mi NNE 9.2 mph - N/A   Clear
10:53 PM 73.9 °F 66.0 °F 76% 30.00 in 10.0 mi North 8.1 mph - N/A   Scattered Clouds
11:53 PM 73.9 °F 66.0 °F 76% 30.00 in 10.0 mi NNE 13.8 mph - N/A   Overcast